GW3984 Weather Reports


Display with metric or nautical units.
time (UTC)temp
F
wind
direction
speed
MPH
gust
MPH
rain 1hr
in
rain 24hr
in
rain mn
in
humidity
%
barometer
mb
20260507120006 60 309 1.0 2.0 0.00 0.00 0.00 84 1017.0
20260507114504 60 304 1.0 6.0 0.00 0.00 0.00 84 1016.6
20260507113004 60 337 1.0 4.0 0.00 0.00 0.00 83 1016.3
20260507112432 61 319 0.0 2.0 0.00 0.00 0.00 84 1015.5
20260507111510 60 273 1.0 5.0 0.00 0.00 0.00 83 1016.2
20260507110005 60 295 1.0 2.0 0.00 0.00 0.00 82 1015.9
20260507105124 61 309 0.0 2.0 0.00 0.00 0.00 83 1015.2
20260507104507 61 284 1.0 3.0 0.00 0.00 0.00 83 1015.9
20260507104145 61 314 0.0 2.0 0.00 0.00 0.00 83 1015.2
20260507103209 61 320 0.0 2.0 0.00 0.00 0.00 83 1015.5
20260507103004 61 302 1.0 3.0 0.00 0.00 0.00 82 1016.2
20260507102202 62 307 0.0 1.0 0.00 0.00 0.00 82 1015.2
20260507101510 61 269 0.0 3.0 0.00 0.00 0.00 81 1015.7
20260507101200 62 297 0.0 2.0 0.00 0.00 0.00 82 1014.9
20260507100135 62 167 0.0 2.0 0.00 0.00 0.00 82 1015.0
20260507100007 61 294 0.0 3.0 0.00 0.00 0.00 81 1015.8
20260507095104 62 5 0.0 1.0 0.00 0.00 0.00 82 1015.0
20260507094507 61 269 0.0 2.0 0.00 0.00 0.00 81 1015.7
20260507094036 62 311 0.0 1.0 0.00 0.00 0.00 82 1015.0
20260507093042 62 66 0.0 3.0 0.00 0.00 0.00 82 1014.7
20260507093004 61 360 0.0 2.0 0.00 0.00 0.00 81 1015.4
20260507091504 61 269 0.0 1.0 0.00 0.00 0.00 81 1015.7
20260507090925 62 359 0.0 0.0 0.00 0.00 0.00 82 1014.9
20260507090008 62 328 0.0 2.0 0.00 0.00 0.00 81 1015.7
20260507085907 62 321 0.0 0.0 0.00 0.00 0.00 81 1014.9
20260507084920 62 302 0.0 1.0 0.00 0.00 0.00 81 1015.0
20260507084510 62 317 0.0 2.0 0.00 0.00 0.00 81 1015.7
20260507083007 62 181 0.0 2.0 0.00 0.00 0.00 81 1015.6
20260507082756 62 302 0.0 1.0 0.00 0.00 0.00 82 1015.0
20260507081801 62 291 0.0 1.0 0.00 0.00 0.00 82 1015.0
20260507081513 62 306 0.0 2.0 0.00 0.00 0.00 81 1015.7
20260507080825 62 294 0.0 1.0 0.00 0.00 0.00 82 1014.9
20260507080010 62 292 0.0 2.0 0.00 0.00 0.00 81 1015.5
20260507075820 62 320 0.0 0.0 0.00 0.00 0.00 82 1014.8
20260507074844 62 186 0.0 1.0 0.00 0.00 0.00 82 1015.0
20260507074523 62 178 0.0 3.0 0.00 0.00 0.00 81 1015.6
20260507073853 62 211 0.0 0.0 0.00 0.00 0.00 82 1015.0
20260507073008 62 304 0.0 2.0 0.00 0.00 0.00 81 1015.6
20260507071508 62 297 0.0 2.0 0.00 0.00 0.00 81 1015.8
20260507070620 62 326 0.0 1.0 0.00 0.00 0.00 82 1015.0
20260507070012 62 360 0.0 2.0 0.00 0.00 0.00 82 1015.8
20260507065622 62 196 0.0 1.0 0.00 0.00 0.00 82 1014.8
20260507064645 62 328 0.0 1.0 0.00 0.00 0.00 82 1014.9
20260507064508 62 310 0.0 2.0 0.00 0.00 0.00 82 1015.6
20260507063646 62 62 0.0 1.0 0.00 0.00 0.00 83 1014.9
20260507063013 62 297 0.0 2.0 0.00 0.00 0.00 82 1015.7
20260507062646 62 183 0.0 1.0 0.00 0.00 0.00 83 1015.1
20260507061641 62 311 0.0 2.0 0.00 0.00 0.00 83 1014.6
20260507061513 62 296 0.0 2.0 0.00 0.00 0.00 82 1015.4
20260507060619 63 219 0.0 2.0 0.00 0.00 0.00 83 1014.8
20260507060010 62 283 0.0 3.0 0.00 0.00 0.00 82 1015.5
20260507055616 63 316 0.0 2.0 0.00 0.00 0.00 83 1014.6
20260507054611 63 306 0.0 1.0 0.00 0.00 0.00 83 1014.6
20260507054512 62 325 0.0 2.0 0.00 0.00 0.00 82 1015.3
20260507053628 63 237 0.0 1.0 0.00 0.00 0.00 83 1014.1
20260507053010 62 311 0.0 2.0 0.00 0.00 0.00 82 1014.9
20260507051514 62 304 0.0 2.0 0.00 0.00 0.00 82 1014.9
20260507050520 63 328 0.0 1.0 0.00 0.00 0.00 83 1014.4
20260507050016 63 44 0.0 2.0 0.00 0.00 0.00 82 1015.0
20260507045543 63 319 0.0 1.0 0.00 0.00 0.00 82 1014.2
20260507044553 63 304 0.0 0.0 0.00 0.00 0.00 82 1014.6
20260507044514 63 300 0.0 2.0 0.00 0.00 0.00 82 1015.2
20260507043614 63 325 0.0 1.0 0.00 0.00 0.00 82 1014.5
20260507043012 63 279 0.0 2.0 0.00 0.00 0.00 81 1015.0
20260507042639 63 49 0.0 1.0 0.00 0.00 0.00 82 1014.3
20260507041513 63 318 0.0 2.0 0.00 0.00 0.00 82 1015.0
20260507040518 63 68 0.0 1.0 0.00 0.00 0.00 82 1014.1
20260507040014 63 302 0.0 2.0 0.00 0.00 0.00 81 1014.5
20260507035501 64 271 0.0 1.0 0.00 0.00 0.00 82 1013.9
20260507034518 63 330 0.0 0.0 0.00 0.00 0.00 82 1013.7
20260507034512 63 314 0.0 2.0 0.00 0.00 0.00 81 1014.3
20260507033512 64 276 0.0 0.0 0.00 0.00 0.00 82 1013.6
20260507033012 63 325 0.0 0.0 0.00 0.00 0.00 81 1014.3
20260507032523 64 269 0.0 0.0 0.00 0.00 0.00 82 1013.5
20260507031515 63 279 1.0 3.0 0.00 0.00 0.00 81 1014.1
20260507031452 64 283 0.0 2.0 0.00 0.00 0.00 82 1013.4
20260507030424 64 352 0.0 2.0 0.00 0.00 0.00 82 1013.7
20260507030017 63 288 0.0 2.0 0.00 0.00 0.00 81 1014.3
20260507025423 64 290 0.0 1.0 0.00 0.00 0.00 82 1013.6
20260507024529 63 325 0.0 3.0 0.00 0.00 0.00 81 1014.3
20260507023315 64 311 0.0 1.0 0.00 0.00 0.00 82 1013.5
20260507023016 63 300 0.0 2.0 0.00 0.00 0.00 81 1014.1
20260507022255 64 123 0.0 2.0 0.00 0.00 0.00 81 1013.6
20260507021512 64 306 0.0 3.0 0.00 0.00 0.00 80 1014.1
20260507021309 64 323 0.0 2.0 0.00 0.00 0.00 81 1013.4
20260507020310 64 290 0.0 3.0 0.00 0.00 0.00 81 1013.0
20260507020012 64 317 0.0 4.0 0.00 0.00 0.00 80 1013.4
20260507015317 64 330 0.0 4.0 0.00 0.00 0.00 81 1012.4
20260507014510 64 272 0.0 5.0 0.00 0.00 0.00 80 1013.3
20260507014322 65 292 0.0 4.0 0.00 0.00 0.00 80 1012.6
20260507013322 65 317 0.0 2.0 0.00 0.00 0.00 80 1012.7
20260507013004 64 327 0.0 3.0 0.00 0.00 0.00 79 1013.4
20260507012333 65 309 0.0 1.0 0.00 0.00 0.00 79 1012.6
20260507011508 65 299 1.0 5.0 0.00 0.00 0.00 79 1013.0
20260507011308 65 319 0.0 2.0 0.00 0.00 0.00 79 1012.2
20260507010241 66 279 0.0 3.0 0.00 0.00 0.00 79 1012.0
20260507010003 65 264 0.0 4.0 0.00 0.00 0.00 78 1012.6
20260507005244 66 297 0.0 3.0 0.00 0.00 0.00 78 1011.9
20260507004515 66 311 1.0 3.0 0.00 0.00 0.00 78 1012.4
20260507004219 66 307 0.0 2.0 0.00 0.00 0.00 78 1011.8
20260507003152 67 321 0.0 2.0 0.00 0.00 0.00 77 1012.0
20260507003021 67 287 1.0 3.0 0.00 0.00 0.00 76 1012.6
20260507002149 68 270 0.0 3.0 0.00 0.00 0.00 77 1011.6
20260507001519 68 300 1.0 4.0 0.00 0.00 0.00 76 1012.3
20260507001130 68 313 0.0 3.0 0.00 0.00 0.00 76 1011.7
20260507000012 68 292 1.0 3.0 0.00 0.00 0.00 75 1012.0
20260506235126 69 304 0.0 1.0 0.00 0.00 0.00 75 1011.3
20260506234512 69 189 0.0 2.0 0.00 0.00 0.00 75 1011.9
20260506234126 69 247 0.0 1.0 0.00 0.00 0.00 75 1011.1
20260506233146 70 38 0.0 1.0 0.00 0.00 0.00 73 1010.8
20260506233008 70 306 1.0 2.0 0.00 0.00 0.00 72 1011.6
20260506232124 72 328 0.0 1.0 0.00 0.00 0.00 71 1010.9
20260506231506 72 222 1.0 2.0 0.00 0.00 0.00 72 1011.6
20260506231146 72 310 0.0 3.0 0.00 0.00 0.00 73 1011.0
20260506230206 74 316 1.0 3.0 0.00 0.00 0.00 69 1010.7
20260506230007 74 283 2.0 4.0 0.00 0.00 0.00 67 1011.5
20260506224523 75 35 1.0 3.0 0.00 0.00 0.00 68 1011.3
20260506224034 76 44 0.0 3.0 0.00 0.00 0.00 69 1010.5
20260506223022 77 295 2.0 4.0 0.00 0.00 0.00 68 1011.1
20260506221910 78 219 0.0 2.0 0.00 0.00 0.00 67 1010.1
20260506221518 78 198 1.0 4.0 0.00 0.00 0.00 68 1010.8
20260506220919 78 321 0.0 3.0 0.00 0.00 0.00 67 1010.0
20260506220016 79 176 1.0 4.0 0.00 0.00 0.00 67 1010.8
20260506215944 79 226 0.0 3.0 0.00 0.00 0.00 68 1010.0
20260506215001 80 8 0.0 3.0 0.00 0.00 0.00 67 1010.1
20260506214518 79 360 1.0 3.0 0.00 0.00 0.00 68 1010.9
20260506213930 79 318 0.0 2.0 0.00 0.00 0.00 69 1010.2
20260506213012 78 325 1.0 3.0 0.00 0.00 0.00 70 1010.9
20260506211755 80 270 0.0 2.0 0.00 0.00 0.00 70 1009.8
20260506211511 79 303 0.0 3.0 0.00 0.00 0.00 70 1010.6
20260506210006 81 286 1.0 3.0 0.00 0.00 0.00 69 1010.7
20260506205653 81 304 0.0 0.0 0.00 0.00 0.00 72 1009.9
20260506204659 79 255 0.0 2.0 0.00 0.00 0.00 73 1009.8
20260506204525 79 296 1.0 3.0 0.00 0.00 0.00 71 1010.7
20260506203021 84 302 0.0 2.0 0.00 0.00 0.00 71 1010.6
20260506201525 83 221 1.0 4.0 0.00 0.00 0.00 69 1010.5
20260506201447 84 176 0.0 3.0 0.00 0.00 0.00 70 1009.7
20260506200512 83 118 0.0 1.0 0.00 0.00 0.00 74 1009.9
20260506200019 83 323 0.0 2.0 0.00 0.00 0.00 71 1010.8
20260506195519 83 96 0.0 0.0 0.00 0.00 0.00 73 1010.1
20260506194519 83 32 0.0 2.0 0.00 0.00 0.00 70 1010.8
20260506194447 83 25 0.0 0.0 0.00 0.00 0.00 71 1009.9
20260506193015 81 111 0.0 3.0 0.00 0.00 0.00 76 1010.6
20260506191512 81 120 1.0 2.0 0.00 0.00 0.00 76 1010.9
20260506191241 81 143 0.0 1.0 0.00 0.00 0.00 76 1010.1
20260506190220 81 150 0.0 1.0 0.00 0.00 0.00 74 1010.2
20260506190011 81 129 0.0 3.0 0.00 0.00 0.00 75 1010.9
20260506184526 81 132 2.0 4.0 0.00 0.00 0.00 72 1011.1
20260506184041 82 58 0.0 3.0 0.00 0.00 0.00 73 1010.3
20260506183025 82 50 0.0 3.0 0.00 0.00 0.00 73 1011.3
20260506183008 83 44 0.0 4.0 0.00 0.00 0.00 73 1010.5
20260506181957 83 106 0.0 4.0 0.00 0.00 0.00 71 1010.6
20260506181527 83 129 1.0 6.0 0.00 0.00 0.00 75 1011.2
20260506180949 84 169 0.0 1.0 0.00 0.00 0.00 73 1010.6
20260506180021 83 298 0.0 4.0 0.00 0.00 0.00 74 1011.5
20260506175928 83 230 0.0 1.0 0.00 0.00 0.00 75 1010.7
20260506174520 79 188 0.0 5.0 0.00 0.00 0.00 80 1011.6
20260506173739 79 148 0.0 3.0 0.00 0.00 0.00 81 1011.0
20260506173016 78 168 2.0 3.0 0.00 0.00 0.00 82 1011.7
20260506172712 78 164 0.0 2.0 0.00 0.00 0.00 84 1011.1
20260506171655 78 165 0.0 0.0 0.00 0.00 0.00 84 1011.2
20260506171515 77 155 0.0 4.0 0.00 0.00 0.00 83 1011.8
20260506170708 78 168 0.0 3.0 0.00 0.00 0.00 83 1011.2
20260506170012 77 146 0.0 4.0 0.00 0.00 0.00 84 1011.9
20260506165706 77 126 0.0 0.0 0.00 0.00 0.00 85 1011.1
20260506164701 77 125 0.0 3.0 0.00 0.00 0.00 85 1011.2
20260506164512 77 146 0.0 4.0 0.00 0.00 0.00 84 1011.9
20260506163644 78 139 0.0 0.0 0.00 0.00 0.00 84 1011.2
20260506163009 77 69 0.0 2.0 0.00 0.00 0.00 84 1011.9
20260506162613 78 141 0.0 1.0 0.00 0.00 0.00 85 1011.2
20260506161637 77 136 0.0 1.0 0.00 0.00 0.00 86 1011.2
20260506161507 77 120 1.0 3.0 0.00 0.00 0.00 86 1011.9
20260506160659 77 143 0.0 2.0 0.00 0.00 0.00 87 1011.1
20260506160023 76 139 1.0 3.0 0.00 0.00 0.00 87 1011.7
20260506155642 77 145 0.0 1.0 0.00 0.00 0.00 87 1011.0
20260506154706 77 152 0.0 1.0 0.00 0.00 0.00 88 1011.0
20260506154526 76 331 0.0 2.0 0.00 0.00 0.00 88 1011.6
20260506153032 75 123 0.0 2.0 0.00 0.00 0.00 92 1011.3
20260506152540 75 131 0.0 1.0 0.00 0.00 0.00 92 1010.6
20260506151557 75 155 0.0 0.0 0.00 0.00 0.00 92 1010.5
20260506151520 74 156 0.0 2.0 0.00 0.00 0.00 91 1011.2
20260506150552 74 120 0.0 0.0 0.00 0.00 0.00 92 1010.3
20260506150015 74 163 0.0 2.0 0.00 0.00 0.00 91 1011.0
20260506144532 74 271 0.0 0.0 0.00 0.00 0.00 90 1010.9
20260506144408 75 274 0.0 0.0 0.00 0.00 0.00 91 1010.3
20260506143412 75 274 0.0 0.0 0.00 0.00 0.00 91 1010.3
20260506143010 74 271 0.0 2.0 0.00 0.00 0.00 90 1010.9
20260506141507 74 157 0.0 2.0 0.00 0.00 0.00 91 1010.7
20260506141312 74 156 0.0 1.0 0.00 0.00 0.00 91 1009.8
20260506140253 74 141 0.0 1.0 0.00 0.00 0.00 91 1009.7
20260506140038 74 149 0.0 2.0 0.00 0.00 0.00 91 1010.4
20260506135223 74 134 0.0 1.0 0.00 0.00 0.00 91 1009.4
20260506134533 73 138 0.0 2.0 0.00 0.00 0.00 91 1009.8
20260506134220 74 129 0.0 0.0 0.00 0.00 0.00 91 1009.1
20260506133156 74 139 0.0 3.0 0.00 0.00 0.00 92 1008.9
20260506133025 73 153 1.0 4.0 0.00 0.00 0.00 91 1009.6
20260506132130 74 129 0.0 1.0 0.00 0.00 0.00 92 1008.9
20260506131532 73 169 0.0 2.0 0.00 0.00 0.00 91 1009.6
20260506130045 74 173 0.0 3.0 0.00 0.00 0.00 92 1008.5
20260506130029 73 151 1.0 4.0 0.00 0.00 0.00 91 1009.3
20260506125035 74 210 0.0 1.0 0.00 0.00 0.00 92 1008.5
20260506124519 73 112 0.0 2.0 0.00 0.00 0.00 91 1009.3
20260506124038 74 108 0.0 0.0 0.00 0.00 0.00 92 1008.6
20260506123045 74 127 0.0 1.0 0.00 0.00 0.00 91 1008.6
20260506123015 73 111 0.0 2.0 0.00 0.00 0.00 90 1009.4
20260506121514 74 96 0.0 2.0 0.00 0.00 0.00 90 1009.4
20260506120953 74 141 0.0 1.0 0.00 0.00 0.00 90 1008.6